Dewpoint
62 55 52 52 50 38 30 32 25 32 36 35 38 40 43 48 49 48 48 50 49 52 56 54 52 56 54 53 54 54 56 52 54 47 49 59 65 66 66 66 66 65 65 65 69 69 68 68 68 68 68 68 68 68 68 68 68 68 68 68 68 68 68 68 67 67 68 67 68 68 68 67 67 67 68 68 69 68 69 68 69 68 68 68 69 69 69 70 68 68 68 67 67 67 68 68 68
38 42 48 48 42 28 30 30 30 31 33 36 38 43 45 50 48 47 47 49 51 54 54 54 54 53 55 56 53 52 54 57 57 57 61 64 65 65 67 67 66 65 65 66 69 69 68 67 68 67 68 68 68 68 68 68 68 68 68 68 68 68 67 67 67 67 67 67 67 68 68 67 67 67 67 68 68 68 68 68 68 68 68 68 69 68 69 68 69 68 68 68 68 66 66 66 67
34 41 36 39 31 27 29 31 30 30 32 34 40 43 47 46 47 49 49 52 53 54 55 56 55 57 55 54 54 52 53 59 59 59 60 64 62 63 67 67 66 65 66 66 67 67 67 68 68 67 67 67 68 68 68 68 68 68 68 68 68 68 67 67 67 67 67 68 67 67 67 67 67 67 67 67 67 68 68 68 69 69 69 68 69 69 68 68 68 68 68 67 67 67 66 67 67
40 41 31 29 27 29 33 34 32 32 32 35 40 45 46 46 46 49 52 56 55 54 56 54 55 58 57 52 55 56 55 57 61 60 59 61 62 65 65 67 66 65 65 65 65 67 67 67 69 68 68 68 68 68 68 68 68 68 68 68 68 68 67 67 67 68 68 68 67 68 67 67 67 67 67 67 67 67 68 68 68 67 67 68 68 69 69 69 69 69 68 67 67 67 66 67 67
34 35 33 30 27 30 35 33 35 36 36 39 39 46 47 47 50 51 54 54 55 56 56 56 54 57 54 56 55 54 55 59 60 62 61 63 65 66 66 67 66 64 64 64 64 65 67 69 69 69 69 68 68 68 68 68 68 68 68 68 68 68 68 68 68 68 68 68 67 68 68 68 67 68 68 68 68 68 68 67 68 68 68 67 67 67 67 67 67 68 67 66 67 67 67 67 67
29 29 35 34 33 39 40 37 38 41 44 46 42 45 47 47 51 52 54 56 57 55 56 56 55 54 54 57 57 55 59 55 61 61 63 63 66 67 67 67 66 64 64 64 63 62 64 69 68 69 69 69 69 69 69 69 69 69 69 69 68 68 68 68 68 68 68 68 68 68 68 68 68 68 68 68 67 67 67 68 67 68 68 68 68 68 68 68 67 67 67 67 67 67 67 67 67
25 25 28 34 38 41 35 36 39 41 45 49 46 47 48 51 51 52 53 53 53 54 56 56 56 54 53 58 58 60 62 63 61 61 63 65 66 67 68 67 66 64 64 63 63 62 66 68 69 69 69 69 69 69 69 69 69 69 70 70 69 68 68 68 68 68 68 67 67 67 67 67 68 68 68 68 68 68 69 69 69 69 69 68 68 68 68 68 67 68 67 67 68 68 68 68 68
30 27 28 29 34 38 36 38 42 42 46 48 49 49 52 51 53 51 53 50 53 54 54 54 53 52 56 57 54 60 62 63 63 65 65 65 65 66 67 66 65 64 63 63 63 64 66 68 69 69 69 69 70 69 69 70 69 69 70 70 70 69 69 68 68 69 67 66 67 67 67 68 68 68 68 69 69 69 69 69 69 69 69 69 69 69 69 69 69 68 68 68 67 68 68 68 68
26 28 30 40 34 36 37 39 42 47 47 47 48 50 54 54 53 52 53 54 56 55 53 53 53 51 54 55 56 59 60 62 63 64 65 65 65 66 66 67 65 64 66 63 64 67 67 69 69 69 69 70 70 70 70 70 70 70 70 70 71 70 70 69 68 68 66 67 67 67 67 68 68 69 69 69 69 69 69 69 69 69 69 69 70 70 70 70 69 69 69 69 68 68 68 67 67
23 29 31 33 32 35 37 40 42 46 47 50 52 54 55 55 54 53 54 53 54 53 52 52 53 53 55 54 56 58 59 64 65 63 64 64 65 66 67 67 67 68 66 66 67 67 67 67 68 69 69 69 69 69 69 69 70 70 71 71 71 70 70 70 69 68 67 68 68 67 68 68 69 69 69 69 68 69 69 69 69 69 69 69 69 69 69 69 70 69 69 69 69 69 69 69 69
22 29 28 35 34 33 34 39 42 46 48 50 51 54 55 53 53 54 54 54 53 52 52 54 51 52 54 54 56 62 63 63 62 61 64 65 66 67 66 67 68 69 67 69 68 67 67 66 67 68 68 68 68 69 69 69 70 71 70 70 69 70 70 70 68 67 67 68 68 68 68 68 69 69 69 68 68 69 69 69 69 69 69 69 69 68 68 69 69 68 69 69 69 69 69 69 69
20 25 28 36 32 33 36 39 43 45 47 51 49 51 52 54 53 51 52 51 51 51 52 53 51 54 50 52 55 61 61 62 61 63 65 65 63 66 66 64 67 68 68 68 67 66 65 64 65 66 68 69 68 69 69 70 70 69 70 70 70 70 70 68 68 68 68 68 68 68 68 68 69 69 69 69 69 69 69 69 69 69 69 69 69 68 68 68 68 68 67 67 68 69 69 69 69
22 28 31 33 34 37 37 40 43 43 46 47 51 51 51 52 49 54 54 49 49 50 53 54 55 54 50 53 59 62 61 63 63 65 65 62 64 64 66 66 67 67 68 67 66 66 65 63 63 65 67 68 68 69 68 69 69 69 69 70 70 69 68 68 69 69 69 69 69 68 68 68 69 69 68 68 68 69 68 68 67 68 69 69 68 68 68 68 68 68 67 67 67 67 67 67 68
25 34 36 36 38 38 39 40 42 42 47 49 50 51 52 52 52 52 51 52 51 51 55 55 53 55 53 55 56 58 62 63 65 66 64 65 64 65 67 65 66 66 67 67 65 65 64 63 63 63 65 65 65 65 68 68 68 69 69 69 69 68 69 69 69 69 69 68 68 68 68 67 68 68 67 67 67 67 67 66 66 67 67 67 66 67 67 67 67 67 67 67 67 67 67 66 66
34 39 38 37 38 39 40 41 40 43 48 49 50 52 53 54 53 50 51 48 53 54 54 55 54 52 51 53 53 59 62 64 65 66 65 66 66 65 66 65 66 66 66 65 64 65 65 64 63 62 66 65 65 65 65 67 68 68 69 69 69 69 69 68 68 68 67 67 67 68 67 66 66 67 66 65 65 66 66 65 65 66 66 66 65 65 65 65 66 66 67 66 66 67 66 66 67
36 39 39 39 37 37 39 40 42 41 47 50 52 52 52 52 53 50 51 52 53 54 54 53 55 55 56 56 57 61 62 64 65 65 63 64 64 64 63 64 63 65 65 65 64 65 64 65 66 63 64 66 67 66 68 67 68 68 68 68 68 68 68 67 66 66 66 66 66 66 66 65 65 65 63 62 63 63 63 63 63 64 64 63 63 64 64 64 64 65 65 65 65 66 66 66 67
40 40 38 36 37 38 39 41 40 46 47 50 50 49 51 52 52 53 53 52 51 54 55 56 57 58 58 59 61 62 64 65 64 63 61 60 58 58 60 59 60 62 64 64 65 64 66 66 67 65 65 67 68 67 67 67 67 66 67 67 67 66 65 64 64 64 64 64 64 64 64 65 65 64 63 61 61 61 61 62 62 62 62 62 60 62 62 62 61 63 63 63 64 65 65 66 67
40 38 36 37 37 39 42 42 44 46 47 48 48 49 52 51 52 51 52 52 52 53 54 58 58 60 61 62 63 63 63 63 62 60 60 59 59 58 57 58 59 59 60 61 64 66 65 66 66 67 67 68 68 67 67 66 67 65 66 67 65 64 62 61 62 61 62 62 61 62 62 62 62 62 62 61 60 60 59 61 60 59 58 58 57 58 58 58 58 59 60 60 61 62 63 60 60
40 38 38 38 41 41 44 45 46 46 46 47 49 49 49 49 49 50 50 51 50 51 53 56 55 58 60 61 62 61 61 61 61 61 60 60 59 59 58 58 60 61 61 61 64 66 66 66 66 67 67 67 67 66 65 65 64 64 63 63 62 61 60 60 59 59 59 59 58 56 58 60 59 61 60 60 59 58 57 57 56 56 55 55 56 55 55 55 56 56 55 56 58 59 54 55 55
39 44 39 42 45 45 46 46 46 48 49 48 48 48 49 49 50 49 48 49 50 50 49 51 52 53 56 58 60 60 59 60 61 61 61 60 60 59 60 61 62 63 63 62 64 66 65 65 67 67 66 66 65 64 63 64 63 63 61 60 59 59 59 58 58 58 57 58 56 56 54 57 57 57 56 56 56 56 55 54 54 53 53 52 54 51 52 52 54 55 54 54 54 53 51 50 52
41 40 39 42 45 46 47 47 48 48 48 47 47 47 48 49 50 50 50 48 51 53 54 52 53 55 55 57 59 59 59 60 61 61 62 61 62 62 62 63 62 63 63 63 63 65 65 65 65 65 65 65 64 62 61 60 61 59 58 56 57 55 55 55 55 56 56 56 55 54 52 54 54 53 55 55 54 54 53 52 51 50 50 49 51 49 48 48 48 44 46 48 47 48 48 50 51
43 42 43 44 45 47 48 48 49 49 48 47 46 46 48 50 49 49 47 48 49 52 55 55 55 56 56 57 59 58 59 60 61 61 61 62 63 63 63 63 64 63 63 61 62 63 63 64 65 64 64 63 63 61 60 59 59 57 56 55 54 55 54 52 54 54 53 56 54 53 53 53 53 51 53 54 55 54 51 48 47 48 48 49 48 47 46 47 46 44 46 46 45 47 46 47 48
42 44 45 45 45 48 49 49 49 48 47 46 47 48 49 50 51 51 52 51 54 56 57 57 57 57 58 58 58 58 60 60 61 61 61 62 63 63 63 63 62 61 61 60 61 61 62 64 64 64 63 61 62 61 60 58 58 58 56 55 53 51 52 52 50 51 53 54 54 54 53 50 50 50 51 52 53 52 51 48 46 48 48 47 49 47 48 48 46 45 45 46 47 45 45 46 45
43 43 46 46 47 48 49 49 49 47 47 48 49 49 47 48 49 52 52 54 56 56 57 58 58 58 59 59 59 59 60 61 61 62 62 63 63 63 63 62 60 61 59 59 58 59 61 61 62 63 62 62 61 59 59 56 56 57 57 55 54 52 51 51 50 50 52 50 53 53 53 52 50 49 52 50 50 52 52 51 51 47 47 47 49 49 47 45 44 44 46 43 42 43 42 44 44
44 46 47 48 49 49 48 47 47 47 48 48 48 48 49 49 50 51 52 54 55 58 59 57 58 57 57 59 59 59 60 61 62 62 63 61 63 62 61 60 60 59 58 58 56 58 59 60 60 60 60 60 59 57 56 55 55 56 54 53 52 52 53 52 51 52 50 48 51 52 54 54 52 52 53 51 51 51 52 51 49 48 49 48 49 46 46 47 44 41 42 38 40 40 40 43 42
45 46 47 47 47 47 47 47 47 48 48 48 48 48 48 49 51 51 53 55 56 58 58 58 57 57 57 59 59 59 58 60 61 62 62 62 61 61 60 58 57 56 55 54 54 54 56 58 59 58 59 58 58 58 55 54 53 54 53 53 51 52 51 52 52 48 47 47 48 52 53 53 53 51 52 51 51 51 50 51 51 50 48 48 48 48 44 44 43 41 39 37 35 37 37 39 38
46 46 47 46 46 45 45 46 47 47 47 47 49 48 48 48 50 49 54 55 57 56 56 55 55 57 58 58 57 57 58 61 61 61 61 61 60 59 58 56 53 52 52 51 48 48 52 54 56 57 57 58 57 55 55 55 54 53 52 50 51 51 51 50 48 48 47 48 50 53 53 53 52 52 52 52 52 50 50 51 51 50 48 47 48 47 47 46 44 41 39 38 38 37 35 34 34
45 45 46 46 45 45 45 45 46 47 46 47 48 47 47 48 49 48 53 55 56 53 54 55 55 56 55 55 55 58 60 59 58 60 60 59 56 55 56 53 52 50 49 49 47 48 48 50 51 54 55 56 56 55 54 54 53 52 52 50 49 49 50 47 44 46 48 49 51 52 54 52 53 53 54 52 52 51 49 49 49 50 48 46 47 47 44 45 43 39 39 39 40 38 35 34 35
45 44 44 44 44 45 45 44 46 45 45 46 46 46 46 46 49 51 53 54 53 53 55 57 56 54 54 55 57 58 58 58 58 58 59 57 56 54 54 53 51 50 49 50 49 49 48 49 50 52 53 55 54 54 52 52 53 50 50 50 49 47 48 47 46 47 49 51 53 52 54 53 54 52 53 54 52 49 49 50 48 50 49 49 49 46 42 43 42 40 41 37 36 40 41 40 35
44 42 43 43 42 41 43 43 43 42 43 46 45 40 43 47 50 52 52 52 53 52 53 55 55 53 55 56 56 57 58 58 58 58 57 56 54 53 53 53 53 51 49 48 50 48 47 47 49 50 52 53 53 52 53 50 52 50 50 48 49 48 45 44 46 47 48 49 51 53 53 52 51 53 52 53 52 50 51 49 49 48 46 47 46 45 41 41 39 39 38 38 41 42 41 43 41
42 43 42 41 39 40 44 45 44 42 44 45 47 40 44 49 52 53 53 52 51 51 53 54 54 53 54 57 57 57 58 58 58 59 58 57 54 52 54 53 53 52 50 50 49 47 47 47 48 48 50 51 51 51 49 50 51 49 46 48 48 49 47 46 46 48 48 48 50 49 51 53 52 52 52 53 53 49 49 48 47 45 46 47 41 41 44 44 43 43 41 42 44 44 43 43 43
41 42 37 39 39 42 44 47 45 42 43 44 47 40 43 47 50 54 52 54 53 51 51 51 51 52 54 55 56 56 57 57 59 58 57 56 54 52 53 53 52 51 51 49 48 47 47 48 48 48 49 49 49 49 50 51 51 50 49 47 49 49 44 46 45 48 47 45 47 49 51 53 53 52 52 51 51 50 46 46 44 46 46 44 43 45 48 45 45 46 48 48 48 46 46 43 45
38 37 37 39 38 40 42 43 43 43 41 41 41 39 43 43 47 51 51 54 51 50 50 50 52 53 53 55 55 54 57 57 57 56 55 55 54 53 53 53 52 52 51 49 47 47 47 47 49 49 49 48 49 49 50 51 50 49 49 49 48 49 46 47 45 48 48 49 48 48 50 51 51 51 51 50 51 49 45 46 44 45 47 45 45 46 48 48 49 47 51 51 50 46 44 41 42
35 39 39 41 37 39 38 42 44 43 44 42 39 40 42 44 45 46 49 50 49 46 47 49 49 50 54 54 54 53 54 55 56 55 55 55 53 54 54 52 53 52 50 49 49 47 46 47 47 48 49 49 49 49 49 48 48 49 47 48 49 47 48 45 47 48 49 48 49 48 50 50 51 50 51 50 50 48 46 45 45 46 46 47 48 51 51 51 51 50 49 50 49 48 45 44 42
34 36 36 36 37 39 40 40 43 44 43 43 41 42 43 45 45 46 46 47 46 45 46 48 50 53 53 53 53 55 53 55 56 54 56 55 55 54 52 53 52 51 49 49 49 47 46 47 47 48 49 50 49 50 49 48 48 48 47 49 49 48 48 48 48 48 48 49 48 50 50 51 50 50 50 51 50 47 46 45 46 49 51 51 51 51 50 50 49 48 48 47 48 46 46 45 46
36 39 34 36 36 37 38 40 44 43 42 41 41 42 43 44 46 49 48 48 48 48 51 51 53 53 54 54 54 53 54 56 56 55 55 53 53 54 52 51 51 50 50 50 48 47 47 47 47 48 49 50 48 48 46 45 46 45 46 46 48 47 47 47 50 47 50 48 49 49 49 50 49 50 48 48 50 48 47 47 50 52 51 50 49 49 47 45 47 49 49 46 46 45 45 46 46
35 34 35 35 36 38 40 40 41 43 42 40 40 40 41 43 46 47 47 48 49 50 52 52 54 53 52 52 53 54 56 56 56 54 54 54 55 54 52 51 50 50 49 48 48 48 48 47 48 48 49 51 49 47 47 46 44 44 45 44 47 46 46 48 48 50 50 50 49 48 49 49 48 48 48 47 48 45 48 50 51 50 50 50 49 48 47 48 49 50 49 49 47 47 47 47 49
38 36 35 34 35 36 40 40 41 42 42 40 43 40 42 43 44 45 47 47 47 47 49 52 52 54 52 54 52 52 54 56 56 54 54 53 52 55 54 52 51 50 49 48 48 48 48 49 49 48 48 50 49 49 46 46 46 44 45 44 46 44 45 46 48 50 51 50 50 49 48 48 48 48 47 45 46 46 50 49 49 48 47 48 49 49 50 50 49 49 48 47 47 46 48 47 48
38 34 35 36 36 38 41 42 44 43 42 40 41 40 42 44 45 45 46 46 47 48 47 48 50 50 50 51 50 52 54 54 55 53 52 51 53 52 53 52 52 50 48 48 49 48 49 48 48 48 49 49 49 49 48 48 49 51 50 49 47 46 50 52 50 50 51 50 49 48 49 48 48 46 44 44 45 47 49 48 47 46 48 49 50 49 49 49 49 48 49 47 47 48 48 49 50
36 34 36 34 34 39 36 41 42 42 43 39 41 38 41 43 46 46 47 47 48 49 49 49 51 50 50 51 50 52 52 53 54 53 52 52 53 54 52 52 52 49 46 47 48 48 48 48 49 48 48 49 48 50 51 51 51 52 53 53 53 52 49 50 51 50 50 48 48 48 49 48 47 44 43 42 44 48 49 48 47 48 49 49 48 48 48 47 49 48 48 49 49 47 45 46 48
37 39 35 33 37 38 37 37 43 42 40 41 39 39 40 42 42 43 45 48 49 49 50 50 52 51 52 54 52 53 52 53 53 54 54 53 54 53 53 52 51 48 47 47 48 47 47 48 48 48 47 49 49 49 51 51 50 50 51 51 50 50 50 49 49 47 48 48 48 48 48 47 46 45 45 44 44 47 47 47 47 48 48 48 48 48 47 48 48 48 48 49 49 48 46 47 48
35 37 43 38 37 36 38 39 42 41 39 42 44 36 34 38 40 40 44 46 48 49 50 48 50 51 52 52 53 53 53 53 53 54 53 52 53 54 53 52 49 47 47 48 48 47 48 47 47 47 47 48 49 49 50 51 49 50 49 48 47 47 47 47 47 47 46 46 45 48 47 46 45 45 44 45 45 47 49 46 47 46 47 47 48 48 47 48 48 47 48 49 48 49 49 47 46
37 35 40 38 37 38 38 39 41 35 35 39 39 41 29 36 37 40 43 44 45 47 48 47 48 48 50 50 51 52 51 53 53 53 53 52 53 53 52 52 48 47 47 48 48 48 48 47 47 46 48 48 48 49 49 50 50 50 50 49 48 48 47 48 49 48 47 45 46 47 47 48 45 45 47 45 46 46 47 46 47 47 47 47 48 49 48 49 47 48 48 48 48 48 49 47 47
39 37 40 39 40 38 38 38 38 36 36 39 42 38 35 32 34 40 42 43 43 46 46 47 46 47 48 49 50 51 51 53 52 53 53 53 53 52 52 52 48 46 47 47 48 49 49 48 47 47 48 48 49 50 49 50 50 50 50 50 48 46 47 48 49 48 48 48 46 47 47 46 45 45 45 45 45 45 46 45 46 47 47 46 48 48 47 48 48 48 49 49 48 48 49 49 47
36 39 39 40 40 38 39 38 36 35 39 38 37 39 38 30 38 41 43 41 42 43 44 45 46 46 48 48 48 50 50 51 51 51 52 52 52 52 53 50 47 48 47 46 47 48 48 48 47 47 48 48 49 49 49 49 50 49 49 49 48 47 48 48 48 47 47 48 47 48 47 44 45 47 46 46 46 45 45 45 46 46 46 46 48 47 47 47 48 48 49 48 47 47 48 48 48
39 40 41 41 40 38 38 38 38 37 37 31 33 36 35 29 37 39 43 40 40 42 43 44 45 46 47 47 49 50 49 51 50 50 50 52 52 53 53 51 48 47 46 47 49 48 47 47 47 47 48 48 49 49 49 49 49 49 48 50 49 47 48 47 47 46 46 47 46 48 47 46 45 46 46 46 45 44 43 45 45 45 47 47 48 46 47 47 47 47 47 48 48 48 48 48 48
40 41 41 39 40 39 38 38 37 36 31 32 35 34 35 27 31 36 38 40 38 38 41 43 45 47 47 49 50 49 48 49 48 49 50 52 53 54 52 50 48 48 48 47 47 46 45 46 47 48 49 48 48 49 49 48 48 48 48 49 48 47 47 47 47 46 44 46 46 46 46 46 46 45 46 47 45 44 44 46 45 45 46 47 47 46 47 46 46 46 46 47 47 47 48 49 48
39 38 39 37 41 40 40 40 38 32 32 30 32 34 35 34 29 30 36 38 37 38 39 43 44 46 47 49 47 47 47 48 47 48 50 52 54 54 52 49 48 48 48 48 45 45 43 44 47 48 48 49 48 48 49 48 47 47 48 49 47 47 46 44 46 45 44 43 44 44 44 44 45 45 46 45 44 43 45 46 47 46 46 47 46 47 47 47 46 46 45 45 46 48 48 48 47
37 37 36 37 32 35 27 42 30 24 29 31 32 34 37 35 32 32 33 35 36 39 38 42 44 45 49 48 48 47 47 47 47 49 52 54 53 54 52 49 48 48 48 47 46 44 44 46 47 47 48 48 48 48 48 49 48 48 47 47 47 47 46 44 44 44 44 44 45 44 44 43 43 44 44 43 42 45 45 46 46 46 46 47 47 46 47 47 46 45 44 46 47 46 47 47 47
37 37 37 37 27 25 23 25 26 30 36 35 34 36 35 30 32 35 36 37 40 41 42 43 45 48 49 48 48 47 48 49 49 52 53 53 53 52 52 48 47 47 47 45 45 46 45 46 47 46 47 48 48 47 48 48 49 48 49 47 47 46 46 46 45 44 45 45 44 44 44 42 42 44 43 43 43 43 44 45 46 46 46 46 46 46 47 46 45 44 43 44 46 47 48 48 48
35 35 33 35 32 30 25 24 23 25 29 33 36 38 28 30 36 37 42 42 42 41 41 44 46 48 51 48 48 49 51 52 52 52 50 51 53 53 51 48 47 47 46 45 44 44 44 45 46 46 46 46 46 47 48 48 48 48 48 47 47 47 45 44 44 45 45 44 45 45 44 43 42 42 40 43 43 44 45 45 46 46 46 46 45 45 46 45 44 44 44 44 45 47 48 48 47
36 35 33 31 33 29 27 28 30 29 28 32 36 30 29 34 39 40 42 42 41 42 43 46 47 47 49 49 50 51 51 52 51 52 52 53 54 53 50 49 47 47 47 47 46 46 47 47 47 46 46 46 45 47 47 48 48 48 48 49 48 47 46 46 45 46 45 45 45 44 43 44 43 42 43 43 44 43 45 46 46 46 45 47 46 46 47 45 44 44 45 45 46 46 47 47 48
35 32 33 30 30 27 32 35 40 41 34 23 30 32 31 36 38 41 40 40 41 42 43 45 47 48 50 50 51 51 51 51 51 53 52 54 52 52 48 48 47 47 48 48 47 47 47 46 45 45 45 45 45 47 47 48 48 48 48 48 48 47 46 46 45 46 45 46 47 45 44 43 44 43 43 44 43 44 46 45 46 45 46 46 47 47 46 45 44 44 45 47 46 48 47 47 48
32 29 30 31 31 30 32 25 29 27 21 24 30 25 25 25 30 40 40 40 41 40 41 43 48 49 49 50 51 50 51 51 52 53 53 53 52 50 48 46 45 47 46 47 47 48 48 47 46 46 45 44 45 46 46 47 47 46 47 47 47 47 46 46 46 45 44 45 45 45 45 43 43 42 41 41 43 45 45 45 45 44 46 46 46 46 46 45 45 45 45 45 46 47 47 47 47
31 30 31 27 31 31 35 29 22 23 21 23 24 24 27 25 34 38 40 40 42 41 42 44 46 47 48 50 50 50 51 52 52 53 53 53 51 49 47 46 43 46 46 44 44 44 46 47 47 46 45 45 45 44 45 44 45 45 45 47 47 46 45 45 45 45 46 43 42 43 43 44 44 42 42 41 44 44 44 44 45 44 45 45 46 46 45 44 45 46 45 44 44 45 47 47 48
31 31 28 29 30 31 27 32 27 29 21 24 20 22 24 29 29 32 34 40 43 41 43 44 45 46 46 47 48 49 51 53 52 53 52 52 50 48 46 45 42 43 41 43 44 43 45 46 46 46 45 45 46 46 46 45 44 45 45 46 47 45 45 45 45 45 45 43 42 42 44 45 44 42 42 43 43 43 43 44 43 42 44 44 44 44 45 44 45 45 45 44 44 44 45 47 47
29 29 28 29 33 31 27 32 25 25 24 21 20 20 26 30 30 33 33 39 43 42 43 45 46 47 47 48 49 50 51 53 53 53 52 51 50 47 45 44 39 40 40 40 40 42 41 42 42 40 42 42 44 46 45 45 45 45 46 47 47 47 47 45 46 45 45 44 45 45 45 46 44 44 43 44 43 43 42 43 42 42 43 43 43 44 45 44 45 45 45 44 43 43 44 46 48
29 29 28 27 29 29 27 24 28 27 28 25 21 21 29 27 37 42 39 41 42 41 43 45 46 46 48 49 51 52 52 54 54 54 53 51 49 46 42 39 39 38 37 36 38 39 38 40 36 37 35 36 39 41 44 44 45 46 47 47 47 47 46 46 46 45 45 43 45 45 45 45 45 45 43 43 42 43 42 42 41 41 42 42 42 42 44 44 44 45 46 44 43 43 44 45 46